QPF
0.00 0.00 0.00 0.00 0.00 0.00 0.00 0.00 0.00 0.00 0.00 0.00 0.00 0.00 0.00 0.00 0.00 0.00 0.00 0.00 0.00 0.00 0.00 0.00 0.00 0.00 0.00 0.00 0.00 0.00 0.00 0.00 0.00 0.00 0.00 0.00 0.00 0.00 0.00 0.00 0.00 0.00 0.00
0.01 0.00 0.00 0.00 0.00 0.00 0.00 0.00 0.00 0.00 0.00 0.00 0.00 0.00 0.00 0.00 0.00 0.00 0.00 0.00 0.00 0.00 0.00 0.00 0.00 0.00 0.00 0.00 0.00 0.00 0.00 0.00 0.00 0.00 0.00 0.00 0.00 0.00 0.00 0.00 0.00 0.00 0.00
0.02 0.00 0.00 0.00 0.00 0.00 0.00 0.00 0.00 0.00 0.00 0.00 0.00 0.00 0.00 0.00 0.00 0.00 0.00 0.00 0.00 0.00 0.00 0.00 0.00 0.00 0.00 0.00 0.00 0.00 0.00 0.00 0.00 0.00 0.00 0.00 0.00 0.00 0.00 0.00 0.00 0.00 0.00
0.02 0.01 0.00 0.00 0.00 0.00 0.00 0.00 0.00 0.00 0.00 0.00 0.00 0.00 0.00 0.00 0.00 0.00 0.00 0.00 0.00 0.00 0.00 0.00 0.00 0.00 0.00 0.00 0.00 0.00 0.00 0.00 0.00 0.00 0.00 0.00 0.00 0.00 0.00 0.00 0.00 0.00 0.00
0.01 0.00 0.02 0.01 0.01 0.01 0.00 0.00 0.00 0.00 0.00 0.00 0.00 0.00 0.00 0.00 0.00 0.00 0.00 0.00 0.00 0.00 0.00 0.00 0.00 0.00 0.00 0.00 0.00 0.00 0.00 0.00 0.00 0.00 0.00 0.00 0.00 0.00 0.00 0.00 0.00 0.00 0.00
0.00 0.01 0.00 0.01 0.06 0.03 0.01 0.00 0.00 0.00 0.00 0.00 0.00 0.00 0.00 0.00 0.00 0.00 0.00 0.00 0.00 0.00 0.00 0.00 0.00 0.00 0.00 0.00 0.00 0.00 0.00 0.00 0.00 0.00 0.00 0.00 0.00 0.00 0.00 0.00 0.00 0.00 0.00
0.00 0.00 0.00 0.00 0.01 0.02 0.01 0.00 0.00 0.00 0.00 0.00 0.00 0.00 0.00 0.00 0.00 0.00 0.00 0.00 0.00 0.00 0.00 0.00 0.00 0.00 0.00 0.00 0.00 0.00 0.00 0.00 0.00 0.00 0.00 0.00 0.00 0.00 0.00 0.00 0.00 0.00 0.00
0.00 0.00 0.00 0.00 0.00 0.01 0.00 0.00 0.00 0.00 0.00 0.00 0.00 0.00 0.00 0.00 0.00 0.00 0.00 0.00 0.00 0.00 0.00 0.00 0.00 0.00 0.00 0.00 0.00 0.00 0.00 0.00 0.00 0.00 0.00 0.00 0.00 0.00 0.00 0.00 0.00 0.00 0.00
0.00 0.00 0.00 0.00 0.00 0.00 0.00 0.00 0.00 0.00 0.00 0.00 0.00 0.00 0.00 0.00 0.00 0.00 0.00 0.00 0.00 0.00 0.00 0.00 0.00 0.00 0.00 0.00 0.00 0.00 0.00 0.00 0.00 0.00 0.00 0.00 0.00 0.00 0.00 0.00 0.00 0.00 0.00
0.00 0.00 0.00 0.00 0.00 0.00 0.00 0.00 0.00 0.00 0.00 0.00 0.00 0.00 0.00 0.00 0.00 0.00 0.00 0.00 0.00 0.00 0.00 0.00 0.00 0.00 0.00 0.00 0.00 0.00 0.00 0.00 0.00 0.00 0.00 0.00 0.00 0.00 0.00 0.00 0.00 0.00 0.00
0.00 0.00 0.00 0.00 0.00 0.00 0.00 0.00 0.00 0.00 0.00 0.00 0.00 0.00 0.00 0.00 0.01 0.02 0.00 0.00 0.00 0.00 0.00 0.00 0.00 0.00 0.00 0.00 0.00 0.00 0.00 0.00 0.00 0.00 0.00 0.00 0.00 0.00 0.00 0.00 0.00 0.00 0.01
0.00 0.00 0.00 0.01 0.02 0.00 0.00 0.00 0.00 0.02 0.04 0.07 0.02 0.01 0.00 0.00 0.00 0.02 0.01 0.00 0.00 0.00 0.00 0.00 0.00 0.00 0.00 0.00 0.00 0.00 0.00 0.00 0.00 0.00 0.00 0.00 0.00 0.00 0.00 0.00 0.00 0.00 0.00
0.00 0.00 0.00 0.00 0.00 0.00 0.01 0.01 0.01 0.00 0.01 0.08 0.08 0.03 0.03 0.02 0.01 0.01 0.02 0.01 0.00 0.00 0.00 0.00 0.00 0.00 0.00 0.00 0.00 0.00 0.00 0.00 0.00 0.00 0.00 0.00 0.00 0.00 0.00 0.00 0.00 0.00 0.00
0.00 0.00 0.00 0.00 0.00 0.00 0.00 0.01 0.01 0.00 0.00 0.00 0.01 0.02 0.02 0.00 0.00 0.01 0.01 0.01 0.01 0.00 0.00 0.00 0.00 0.00 0.00 0.00 0.00 0.00 0.00 0.00 0.00 0.00 0.00 0.00 0.00 0.00 0.00 0.00 0.00 0.00 0.00
0.00 0.00 0.00 0.00 0.00 0.00 0.00 0.00 0.00 0.00 0.00 0.00 0.00 0.00 0.01 0.00 0.00 0.00 0.01 0.01 0.01 0.00 0.00 0.00 0.00 0.00 0.00 0.00 0.00 0.00 0.00 0.00 0.00 0.00 0.00 0.00 0.00 0.00 0.00 0.00 0.00 0.00 0.00
0.00 0.00 0.00 0.00 0.00 0.00 0.00 0.00 0.00 0.00 0.00 0.00 0.00 0.00 0.00 0.00 0.00 0.00 0.00 0.00 0.01 0.00 0.00 0.00 0.00 0.00 0.00 0.00 0.00 0.00 0.00 0.00 0.00 0.00 0.00 0.00 0.00 0.00 0.00 0.00 0.00 0.00 0.00
0.00 0.00 0.00 0.00 0.00 0.00 0.00 0.00 0.00 0.00 0.00 0.00 0.00 0.00 0.00 0.00 0.00 0.00 0.00 0.00 0.00 0.00 0.00 0.00 0.00 0.00 0.00 0.00 0.00 0.00 0.00 0.00 0.00 0.00 0.00 0.00 0.00 0.00 0.00 0.00 0.00 0.00 0.00
0.00 0.00 0.00 0.00 0.00 0.00 0.00 0.00 0.00 0.00 0.00 0.00 0.00 0.00 0.00 0.00 0.00 0.00 0.00 0.00 0.00 0.00 0.00 0.00 0.00 0.00 0.00 0.00 0.00 0.00 0.00 0.00 0.00 0.00 0.00 0.00 0.00 0.00 0.00 0.00 0.00 0.00 0.00
0.00 0.00 0.00 0.00 0.00 0.00 0.00 0.00 0.00 0.00 0.00 0.00 0.00 0.00 0.00 0.00 0.00 0.00 0.00 0.00 0.00 0.00 0.00 0.00 0.00 0.00 0.00 0.00 0.00 0.00 0.00 0.00 0.00 0.00 0.00 0.00 0.00 0.00 0.00 0.00 0.00 0.00 0.00
0.00 0.00 0.00 0.00 0.00 0.00 0.00 0.00 0.00 0.00 0.00 0.00 0.00 0.00 0.00 0.00 0.00 0.00 0.00 0.00 0.00 0.00 0.00 0.00 0.00 0.00 0.00 0.00 0.00 0.00 0.00 0.00 0.00 0.00 0.00 0.00 0.00 0.00 0.00 0.00 0.00 0.00 0.00
0.00 0.00 0.00 0.00 0.00 0.00 0.00 0.00 0.00 0.00 0.00 0.00 0.00 0.00 0.00 0.00 0.00 0.00 0.00 0.00 0.01 0.02 0.02 0.02 0.01 0.00 0.00 0.00 0.00 0.00 0.00 0.00 0.00 0.00 0.00 0.00 0.00 0.00 0.00 0.00 0.00 0.00 0.00
0.00 0.00 0.00 0.00 0.00 0.00 0.00 0.00 0.00 0.00 0.00 0.00 0.00 0.00 0.00 0.00 0.00 0.00 0.00 0.01 0.03 0.04 0.04 0.02 0.01 0.01 0.00 0.00 0.00 0.00 0.00 0.00 0.00 0.00 0.00 0.00 0.00 0.00 0.00 0.00 0.00 0.00 0.00
0.00 0.00 0.00 0.00 0.00 0.00 0.00 0.00 0.00 0.00 0.00 0.00 0.00 0.00 0.00 0.00 0.00 0.00 0.01 0.04 0.04 0.03 0.04 0.04 0.03 0.02 0.00 0.00 0.00 0.00 0.00 0.00 0.00 0.00 0.00 0.00 0.00 0.00 0.00 0.00 0.00 0.00 0.00
0.00 0.00 0.00 0.00 0.00 0.00 0.00 0.00 0.00 0.00 0.00 0.00 0.00 0.00 0.00 0.00 0.00 0.00 0.00 0.00 0.00 0.00 0.00 0.01 0.01 0.00 0.00 0.00 0.00 0.00 0.00 0.00 0.00 0.00 0.00 0.00 0.00 0.00 0.00 0.00 0.00 0.00 0.00
0.00 0.00 0.00 0.00 0.00 0.00 0.00 0.00 0.00 0.00 0.00 0.00 0.00 0.00 0.00 0.00 0.00 0.00 0.00 0.00 0.00 0.00 0.00 0.00 0.00 0.00 0.00 0.00 0.00 0.00 0.00 0.00 0.00 0.00 0.00 0.00 0.00 0.00 0.00 0.00 0.00 0.00 0.00
0.03 0.02 0.00 0.00 0.00 0.00 0.00 0.00 0.01 0.00 0.00 0.00 0.00 0.00 0.00 0.00 0.00 0.00 0.00 0.00 0.00 0.00 0.00 0.00 0.00 0.00 0.00 0.00 0.00 0.00 0.00 0.00 0.00 0.00 0.00 0.00 0.00 0.00 0.00 0.00 0.00 0.00 0.00
MSLP
1015.24 1015.61 1016.47 1017.20 1017.63 1017.92 1018.67 1019.36 1019.66 1019.49 1019.87 1020.26 1020.07 1021.15 1021.85 1022.23 1022.49 1023.12 1023.70 1024.30 1024.69 1024.91 1025.23 1025.78 1025.98 1026.25 1026.70 1026.87 1027.24 1027.45 1027.59 1027.89 1028.24 1028.39 1028.57 1028.77 1028.85 1029.01 1029.15 1029.06 1029.30 1029.44 1029.30
1014.77 1015.47 1016.38 1017.01 1017.77 1017.86 1018.46 1019.14 1019.44 1019.77 1020.04 1020.28 1020.32 1020.92 1021.62 1022.33 1022.47 1023.17 1023.74 1024.36 1024.70 1024.94 1025.24 1025.71 1025.99 1026.31 1026.71 1027.09 1027.42 1027.51 1027.63 1027.96 1028.38 1028.52 1028.66 1028.90 1029.00 1029.14 1029.45 1029.42 1029.49 1029.56 1029.61
1014.68 1015.50 1016.11 1016.87 1017.40 1017.93 1018.37 1019.01 1019.52 1019.77 1020.17 1020.32 1020.46 1020.86 1021.63 1022.34 1022.64 1023.13 1023.80 1024.48 1024.68 1024.92 1025.14 1025.65 1026.02 1026.40 1026.70 1027.04 1027.27 1027.33 1027.55 1027.97 1028.25 1028.53 1028.72 1029.11 1029.43 1029.35 1029.49 1029.59 1029.71 1029.70 1029.68
1014.33 1015.22 1016.04 1016.54 1017.01 1017.68 1018.29 1018.76 1019.35 1019.85 1020.24 1020.40 1020.58 1020.95 1021.50 1022.23 1022.61 1023.04 1023.59 1024.32 1024.80 1024.84 1025.17 1025.41 1025.70 1026.19 1026.55 1026.87 1027.15 1027.38 1027.52 1027.83 1028.14 1028.39 1028.68 1028.94 1029.36 1029.51 1029.55 1029.63 1029.79 1029.90 1029.88
1013.97 1014.84 1015.62 1016.14 1016.74 1017.36 1018.08 1018.59 1019.00 1019.21 1020.12 1020.45 1020.73 1020.91 1021.42 1021.88 1022.60 1022.98 1023.39 1023.82 1024.33 1024.60 1025.01 1025.35 1025.60 1025.76 1026.21 1026.53 1026.71 1026.97 1027.14 1027.41 1027.79 1027.96 1028.31 1028.67 1029.01 1029.30 1029.24 1029.31 1029.49 1029.55 1029.59
1013.93 1014.50 1015.22 1015.83 1016.56 1017.32 1017.80 1018.33 1018.73 1019.10 1019.67 1020.25 1020.58 1021.06 1021.28 1021.84 1022.32 1022.67 1023.07 1023.51 1023.89 1024.24 1024.64 1025.03 1025.42 1025.50 1025.77 1026.10 1026.19 1026.29 1026.35 1026.65 1027.09 1027.48 1027.75 1027.98 1028.51 1028.76 1028.95 1029.13 1029.18 1029.31 1029.38
1013.87 1014.49 1014.99 1015.75 1016.48 1017.10 1017.60 1018.00 1018.35 1018.78 1019.57 1019.85 1020.76 1021.38 1021.68 1021.67 1022.01 1022.33 1022.61 1023.18 1023.62 1023.75 1024.15 1024.45 1024.89 1025.08 1025.33 1025.46 1025.65 1025.72 1025.70 1025.80 1026.13 1026.49 1026.92 1027.27 1027.70 1028.14 1028.24 1028.41 1028.61 1028.72 1028.89
1014.02 1014.40 1014.69 1015.63 1016.44 1016.88 1017.50 1018.03 1017.93 1018.74 1019.12 1019.48 1020.35 1021.37 1021.92 1022.42 1022.17 1022.13 1022.39 1022.85 1023.02 1023.19 1023.54 1023.92 1024.20 1024.44 1024.66 1024.89 1024.95 1025.01 1024.98 1024.99 1025.13 1025.48 1025.88 1026.21 1026.46 1026.97 1027.50 1027.86 1027.94 1027.98 1028.18
1014.11 1014.35 1014.54 1015.47 1016.13 1016.72 1017.68 1017.99 1017.44 1018.03 1018.80 1019.19 1019.39 1020.44 1021.45 1021.92 1022.31 1022.34 1022.27 1022.34 1022.56 1022.82 1022.98 1023.19 1023.36 1023.64 1023.84 1023.94 1024.07 1024.24 1024.19 1024.33 1024.29 1024.36 1024.60 1024.96 1025.45 1025.83 1026.19 1026.63 1026.90 1026.98 1027.35
1014.28 1014.33 1014.38 1014.83 1015.82 1016.21 1016.78 1017.09 1017.25 1017.68 1018.21 1018.81 1019.56 1020.05 1020.36 1020.97 1021.94 1022.57 1022.35 1022.26 1022.14 1022.35 1022.49 1022.55 1022.64 1022.69 1022.88 1023.16 1023.33 1023.36 1023.33 1023.52 1023.55 1023.61 1023.82 1024.00 1024.33 1024.71 1025.14 1025.35 1025.71 1026.01 1026.29
1014.11 1014.14 1014.32 1014.63 1015.30 1015.73 1016.25 1016.65 1017.16 1017.51 1017.79 1018.77 1019.19 1019.84 1020.36 1020.73 1021.07 1021.90 1022.28 1022.10 1022.12 1021.86 1021.88 1021.89 1021.82 1022.04 1022.05 1022.21 1022.43 1022.35 1022.36 1022.50 1022.78 1023.01 1023.23 1023.32 1023.49 1023.70 1023.94 1024.38 1024.72 1024.96 1025.20
1014.03 1014.11 1014.17 1014.45 1014.98 1015.66 1016.03 1016.40 1016.72 1017.24 1017.80 1018.19 1018.62 1019.13 1019.58 1020.22 1020.64 1021.20 1021.67 1021.62 1021.66 1021.59 1021.39 1021.43 1021.52 1021.40 1021.33 1021.53 1021.56 1021.61 1021.73 1021.79 1022.02 1022.40 1022.49 1022.47 1022.46 1022.44 1022.65 1023.17 1023.58 1023.95 1024.31
1013.41 1013.69 1014.03 1014.43 1014.91 1015.34 1015.76 1016.16 1016.52 1016.88 1017.32 1017.82 1018.87 1019.33 1019.35 1019.44 1019.68 1020.17 1020.50 1020.78 1021.16 1021.17 1021.09 1020.76 1020.79 1020.74 1020.75 1021.09 1021.06 1020.90 1021.01 1021.17 1021.25 1021.24 1021.26 1021.42 1021.64 1021.73 1021.68 1021.92 1022.29 1022.66 1023.02
1012.92 1013.20 1013.60 1014.01 1014.48 1014.88 1015.37 1015.84 1016.20 1016.56 1017.05 1017.32 1017.95 1019.26 1019.40 1019.26 1019.34 1019.26 1019.75 1020.02 1020.69 1020.74 1020.75 1020.16 1019.53 1019.75 1019.92 1020.11 1020.00 1019.90 1020.21 1020.13 1020.16 1020.17 1020.17 1020.16 1020.38 1020.59 1020.70 1021.08 1021.31 1021.67 1022.03
1012.50 1012.89 1013.36 1013.74 1014.11 1014.53 1015.04 1015.57 1015.93 1016.29 1016.62 1017.03 1017.07 1018.17 1018.76 1019.02 1018.89 1018.74 1018.67 1018.84 1019.30 1019.87 1019.58 1019.07 1019.35 1018.66 1018.74 1019.05 1018.94 1018.99 1019.00 1018.85 1018.86 1019.12 1019.24 1019.21 1019.28 1019.53 1019.46 1020.06 1020.50 1020.93 1021.40
1011.74 1012.21 1012.79 1013.26 1013.69 1014.16 1014.61 1014.94 1015.28 1015.70 1016.08 1016.33 1016.26 1016.98 1017.48 1017.63 1017.74 1017.81 1017.76 1017.94 1018.15 1018.29 1018.05 1017.84 1017.86 1017.61 1017.58 1017.58 1017.52 1017.76 1017.70 1017.63 1017.65 1017.36 1017.62 1018.11 1018.39 1018.72 1018.87 1019.11 1019.78 1020.46 1020.86
1011.04 1011.35 1011.70 1012.29 1012.76 1013.19 1013.59 1013.90 1014.13 1014.49 1014.93 1015.15 1015.39 1015.76 1015.99 1016.12 1016.29 1016.46 1016.73 1016.76 1016.98 1017.13 1016.84 1016.28 1016.48 1016.46 1016.62 1016.62 1016.50 1016.51 1016.42 1016.46 1016.47 1016.83 1016.67 1017.06 1017.82 1018.15 1018.70 1019.37 1019.85 1020.42 1021.06
1010.22 1010.60 1010.98 1011.24 1011.51 1011.88 1012.24 1012.45 1012.84 1013.20 1013.75 1014.10 1014.24 1014.73 1014.71 1015.11 1015.42 1015.51 1015.73 1015.77 1015.83 1015.74 1015.90 1015.60 1015.51 1015.64 1015.75 1015.52 1015.42 1015.75 1015.93 1015.89 1015.87 1015.99 1016.21 1016.16 1016.82 1017.43 1017.97 1018.78 1019.62 1020.34 1020.79
1009.31 1009.75 1010.09 1010.22 1010.50 1010.77 1011.07 1011.23 1011.55 1012.00 1012.22 1012.38 1012.86 1013.41 1013.27 1014.02 1014.20 1014.26 1014.47 1014.58 1014.62 1014.60 1014.68 1014.54 1014.12 1014.23 1014.49 1014.91 1015.03 1015.08 1014.98 1015.11 1015.15 1015.07 1015.47 1015.71 1016.24 1016.87 1017.39 1017.93 1018.59 1019.70 1020.71
1008.39 1008.63 1008.80 1009.18 1009.49 1009.75 1009.96 1010.26 1010.62 1010.90 1011.12 1011.40 1011.77 1011.97 1012.12 1012.50 1012.57 1012.79 1013.03 1013.12 1013.21 1013.39 1013.44 1013.40 1013.14 1013.16 1013.66 1014.00 1014.31 1014.58 1014.90 1014.82 1014.65 1014.75 1015.06 1015.26 1015.68 1016.63 1017.34 1018.04 1018.61 1018.87 1019.80
1007.21 1007.62 1008.09 1008.33 1008.55 1008.64 1008.60 1008.92 1009.18 1009.54 1009.93 1010.23 1010.40 1010.56 1010.67 1010.75 1010.92 1011.13 1011.57 1011.72 1012.01 1012.27 1012.39 1012.32 1012.16 1012.20 1012.65 1013.59 1013.42 1013.34 1013.57 1013.85 1014.45 1014.88 1015.19 1015.52 1016.05 1016.47 1017.20 1018.06 1018.81 1019.01 1019.44
1006.20 1006.67 1006.80 1007.19 1007.52 1007.47 1007.41 1007.81 1008.41 1008.84 1009.07 1009.34 1009.21 1009.28 1009.56 1009.78 1009.84 1010.04 1010.25 1010.38 1010.52 1010.98 1011.11 1011.12 1010.99 1011.01 1011.06 1011.39 1011.74 1012.26 1013.06 1013.89 1014.86 1014.95 1015.39 1016.06 1016.21 1017.10 1017.08 1017.58 1018.44 1018.98 1019.24
1005.10 1005.25 1005.50 1005.81 1006.03 1006.38 1006.42 1007.00 1007.53 1007.78 1007.86 1007.85 1007.91 1008.23 1008.42 1008.32 1008.51 1008.85 1009.12 1009.84 1010.75 1010.79 1010.67 1010.58 1010.19 1010.29 1010.43 1010.56 1011.14 1012.22 1012.77 1013.59 1014.35 1015.27 1015.43 1016.40 1016.59 1016.81 1017.26 1017.80 1018.04 1018.37 1018.37
1003.57 1003.88 1004.23 1004.62 1004.95 1004.78 1005.22 1005.64 1005.99 1006.54 1006.45 1006.41 1006.67 1006.77 1006.79 1007.05 1007.46 1007.90 1009.08 1010.15 1010.78 1011.08 1010.97 1011.02 1010.76 1011.36 1011.10 1011.28 1011.18 1012.00 1012.86 1014.08 1015.19 1015.52 1015.97 1016.44 1016.82 1017.34 1017.32 1017.69 1017.90 1017.78 1018.21
1002.38 1002.90 1003.52 1004.01 1004.15 1004.45 1005.40 1005.45 1005.50 1005.70 1006.00 1006.63 1007.32 1007.56 1007.48 1007.43 1007.50 1007.79 1008.92 1010.21 1011.20 1012.04 1012.13 1011.88 1011.95 1011.90 1011.93 1012.00 1011.69 1012.50 1013.65 1014.42 1015.53 1015.88 1016.38 1017.02 1016.82 1017.20 1017.08 1017.09 1017.35 1017.48 1017.47
1001.85 1002.60 1003.96 1005.00 1005.28 1005.48 1005.79 1005.54 1005.29 1005.45 1006.32 1007.38 1008.22 1008.40 1008.22 1008.27 1008.47 1008.31 1008.37 1009.61 1010.94 1012.01 1012.25 1012.25 1012.53 1012.60 1012.77 1012.63 1013.95 1013.39 1014.69 1014.78 1015.43 1016.42 1016.90 1017.13 1017.00 1017.15 1017.45 1017.12 1017.09 1017.38 1017.53
Thickness
5629 5633 5629 5627 5627 5631 5628 5626 5627 5631 5630 5630 5632 5633 5624 5624 5625 5621 5617 5611 5610 5608 5606 5603 5604 5603 5600 5600 5597 5597 5597 5595 5591 5592 5591 5589 5588 5587 5586 5586 5582 5579 5579
5632 5630 5625 5625 5624 5627 5627 5623 5624 5626 5626 5625 5627 5629 5622 5618 5620 5617 5613 5608 5606 5604 5602 5599 5599 5598 5595 5593 5592 5592 5592 5590 5586 5587 5586 5584 5583 5581 5577 5577 5575 5574 5572
5629 5624 5626 5624 5622 5622 5623 5620 5619 5621 5621 5621 5622 5624 5619 5614 5614 5612 5608 5604 5602 5600 5600 5595 5593 5591 5590 5589 5588 5590 5589 5586 5584 5582 5581 5577 5574 5574 5572 5570 5567 5567 5566
5628 5624 5624 5624 5621 5620 5619 5619 5617 5617 5615 5616 5616 5617 5617 5611 5609 5608 5605 5600 5597 5597 5595 5593 5591 5588 5585 5584 5584 5584 5584 5582 5580 5578 5575 5573 5567 5566 5565 5562 5560 5558 5558
5626 5623 5620 5621 5618 5617 5616 5615 5615 5617 5611 5609 5610 5611 5613 5611 5602 5603 5601 5600 5596 5595 5592 5588 5587 5586 5583 5581 5581 5581 5582 5580 5577 5576 5573 5569 5565 5561 5560 5559 5557 5555 5553
5621 5620 5617 5619 5615 5611 5613 5612 5611 5610 5608 5606 5606 5605 5605 5607 5602 5599 5598 5595 5593 5591 5589 5585 5582 5582 5581 5578 5580 5581 5582 5580 5577 5573 5571 5569 5563 5560 5556 5553 5552 5549 5547
5617 5614 5615 5613 5610 5608 5608 5608 5607 5606 5603 5603 5595 5594 5596 5598 5601 5598 5594 5590 5589 5589 5586 5583 5580 5580 5580 5580 5578 5579 5580 5580 5578 5575 5572 5569 5564 5559 5556 5553 5550 5547 5544
5609 5609 5612 5608 5605 5605 5602 5600 5604 5599 5599 5598 5592 5585 5584 5585 5589 5592 5593 5589 5585 5584 5583 5580 5579 5579 5579 5578 5578 5579 5579 5580 5579 5575 5572 5569 5566 5560 5555 5550 5547 5545 5542
5603 5605 5606 5603 5604 5603 5597 5595 5601 5597 5592 5593 5595 5586 5577 5579 5578 5583 5584 5584 5585 5584 5581 5580 5578 5578 5578 5580 5579 5579 5580 5578 5578 5577 5575 5571 5566 5561 5557 5551 5546 5543 5538
5595 5600 5604 5604 5600 5602 5599 5597 5596 5593 5591 5589 5588 5589 5588 5584 5574 5573 5576 5576 5579 5579 5576 5577 5580 5580 5579 5580 5579 5579 5581 5579 5578 5576 5572 5570 5566 5563 5558 5555 5549 5543 5538
5596 5600 5601 5602 5599 5598 5597 5595 5591 5589 5589 5584 5584 5583 5581 5580 5578 5572 5567 5572 5573 5574 5574 5575 5578 5579 5581 5580 5580 5581 5582 5581 5577 5572 5567 5565 5564 5561 5557 5551 5545 5542 5539
5593 5597 5598 5599 5597 5595 5594 5591 5590 5587 5585 5585 5584 5583 5581 5576 5574 5571 5567 5567 5568 5571 5572 5574 5576 5578 5579 5577 5576 5575 5576 5578 5576 5570 5566 5564 5561 5559 5555 5549 5544 5539 5534
5598 5599 5597 5595 5593 5592 5590 5587 5587 5587 5585 5582 5576 5575 5576 5578 5577 5572 5571 5569 5567 5567 5569 5574 5574 5574 5575 5572 5572 5574 5570 5569 5569 5568 5566 5562 5557 5553 5552 5548 5542 5537 5532
5599 5597 5595 5594 5592 5591 5588 5585 5584 5583 5581 5580 5576 5568 5569 5573 5573 5574 5570 5568 5562 5565 5566 5574 5578 5576 5573 5569 5570 5571 5567 5567 5566 5565 5563 5560 5555 5552 5548 5542 5538 5532 5526
5601 5596 5594 5593 5591 5589 5586 5584 5581 5579 5577 5576 5578 5571 5568 5568 5571 5573 5573 5572 5568 5562 5567 5574 5571 5577 5574 5568 5569 5567 5565 5565 5564 5561 5558 5556 5552 5548 5546 5539 5533 5526 5519
5604 5601 5596 5594 5591 5588 5585 5585 5583 5579 5577 5576 5579 5575 5572 5573 5572 5571 5571 5571 5569 5567 5566 5575 5573 5576 5575 5573 5572 5567 5566 5563 5562 5564 5558 5551 5547 5542 5539 5532 5524 5516 5510
5608 5605 5603 5600 5596 5593 5591 5589 5589 5586 5582 5582 5581 5579 5577 5578 5576 5575 5572 5572 5571 5569 5568 5579 5574 5574 5572 5571 5570 5568 5567 5563 5560 5556 5555 5548 5539 5534 5527 5516 5509 5503 5494
5611 5609 5607 5604 5601 5600 5598 5597 5593 5591 5587 5583 5583 5578 5581 5577 5575 5575 5573 5572 5570 5571 5567 5567 5570 5568 5565 5567 5567 5562 5558 5555 5552 5550 5545 5542 5535 5527 5519 5510 5500 5493 5484
5615 5612 5609 5607 5605 5604 5601 5600 5598 5593 5591 5589 5585 5581 5585 5577 5576 5575 5572 5570 5569 5568 5566 5563 5567 5566 5563 5558 5556 5552 5552 5548 5545 5542 5538 5533 5526 5518 5510 5504 5495 5483 5471
5616 5614 5613 5611 5609 5607 5606 5603 5599 5596 5593 5591 5588 5586 5585 5581 5580 5577 5574 5572 5571 5567 5566 5563 5565 5565 5558 5554 5551 5548 5540 5538 5536 5531 5527 5523 5518 5508 5498 5489 5481 5476 5463
5618 5614 5610 5608 5606 5606 5608 5605 5602 5599 5595 5592 5590 5589 5588 5586 5583 5581 5575 5573 5568 5564 5561 5560 5560 5561 5555 5540 5544 5544 5539 5535 5525 5516 5511 5507 5500 5493 5483 5473 5464 5459 5451
5618 5613 5612 5608 5605 5607 5607 5601 5596 5593 5591 5588 5590 5589 5585 5580 5580 5575 5572 5570 5568 5562 5563 5561 5561 5558 5558 5551 5548 5539 5528 5515 5505 5502 5494 5486 5483 5472 5469 5460 5451 5442 5435
5617 5617 5615 5611 5609 5606 5604 5597 5591 5591 5590 5590 5589 5585 5582 5582 5578 5576 5570 5559 5548 5545 5544 5549 5556 5553 5548 5541 5530 5519 5512 5503 5492 5484 5479 5468 5464 5457 5449 5439 5434 5427 5421
5624 5621 5619 5613 5609 5612 5604 5599 5595 5591 5592 5592 5587 5584 5584 5580 5575 5570 5555 5544 5537 5532 5531 5528 5527 5520 5520 5516 5515 5505 5495 5481 5468 5463 5456 5449 5444 5436 5432 5423 5415 5412 5403
5622 5618 5613 5609 5609 5606 5588 5590 5591 5588 5586 5573 5564 5560 5560 5559 5556 5553 5541 5528 5518 5509 5509 5508 5504 5501 5498 5496 5495 5484 5472 5463 5448 5443 5436 5425 5425 5418 5413 5407 5399 5393 5388
5615 5609 5588 5578 5576 5574 5571 5574 5578 5576 5562 5550 5543 5539 5539 5538 5535 5535 5531 5518 5505 5493 5489 5486 5482 5480 5475 5473 5459 5460 5445 5442 5434 5421 5412 5407 5404 5398 5391 5388 5383 5376 5368